Date String (YYYY-MM-DD hh:mm:ss) UTC,Instrument flags,absolute air pressure of the measurement (hPa),sample flow rate (lpm),inlet stack bypass flow (lpm),air temperature of the measurement (°C),ambient temperature measured by the external sensor (°C),aerosol sample conditioner tube jacket temperature (°C),OPC LED temperature (°C),internal box temperature (°C),relative humidity of the measurement (%),span deviation,mass concentration of particles derived from Lorenz-Mie calculation of OPC scattering (μg/m³),mass concentration of particles derived from Lorenz-Mie calculation of OPC scattering (μg/m³),mass concentration of particles derived from Lorenz-Mie calculation of OPC scattering (μg/m³)
DateTimeUTC,F1_M11,P_M11,Q1_M11,Q2_M11,T1_M11,T2_M11,T3_M11,T4_M11,T5_M11,U1_M11,ZSPAN_M11,X2_M11,X0_M11,X1_M11
2023-11-20 00:00:00,SystemResetWarning,0820.7,5.00,000.00,026.4,025.5,000.0,034.7,027.7,13.0,0000.0,0001.31,0005.11,0000.88
2023-11-20 00:01:00,SystemResetWarning,0820.9,5.00,000.00,026.4,025.5,000.0,034.7,027.7,13.0,0000.0,0001.21,0004.91,0000.86
2023-11-20 00:02:00,SystemResetWarning,0820.8,5.00,000.00,026.4,025.5,000.0,034.7,027.7,13.1,0000.0,0001.13,0004.73,0000.85
2023-11-20 00:03:00,SystemResetWarning,0820.5,5.00,000.00,026.4,025.5,000.0,034.7,027.7,13.1,0000.0,0001.06,0003.46,0000.84
2023-11-20 00:04:00,SystemResetWarning,0820.7,5.01,000.00,026.4,025.5,000.0,034.7,027.7,13.2,0000.0,0001.03,0002.68,0000.82
2023-11-20 00:05:00,SystemResetWarning,0820.5,5.00,000.00,026.4,025.5,000.0,034.7,027.7,13.2,0000.0,0001.05,0002.80,0000.83
2023-11-20 00:06:00,SystemResetWarning,0820.5,5.00,000.00,026.4,025.5,000.0,034.7,027.7,13.0,0000.0,0001.08,0002.83,0000.84
2023-11-20 00:07:00,SystemResetWarning,0820.6,4.99,000.00,026.4,025.5,000.0,034.7,027.7,12.9,0000.0,0001.08,0003.20,0000.84
2023-11-20 00:08:00,SystemResetWarning,0820.6,4.99,000.00,026.4,025.4,000.0,034.7,027.7,12.9,0000.0,0001.07,0003.80,0000.85
2023-11-20 00:09:00,SystemResetWarning,0820.6,5.00,000.00,026.4,025.4,000.0,034.7,027.7,12.8,0000.0,0001.06,0003.24,0000.86
2023-11-20 00:10:00,SystemResetWarning,0820.6,5.00,000.00,026.4,025.4,000.0,034.7,027.7,12.8,0000.0,0001.08,0002.80,0000.85
2023-11-20 00:11:00,SystemResetWarning,0820.6,5.01,000.00,026.4,025.5,000.0,034.7,027.7,12.9,0000.0,0001.09,0002.97,0000.85
2023-11-20 00:12:00,SystemResetWarning,0820.6,5.00,000.00,026.4,025.5,000.0,034.7,027.7,13.0,0000.0,0001.08,0003.14,0000.85
2023-11-20 00:13:00,SystemResetWarning,0820.7,5.00,000.00,026.4,025.5,000.0,034.7,027.7,13.0,0000.0,0001.06,0003.09,0000.84
2023-11-20 00:14:00,SystemResetWarning,0820.7,5.00,000.00,026.4,025.5,000.0,034.7,027.7,13.0,0000.0,0001.06,0003.08,0000.83
2023-11-20 00:15:00,SystemResetWarning,0820.8,5.00,000.00,026.4,025.5,000.0,034.7,027.7,12.9,0000.0,0001.05,0003.03,0000.84
2023-11-20 00:16:00,SystemResetWarning,0820.7,5.00,000.00,026.4,025.5,000.0,034.7,027.8,12.9,0000.0,0001.04,0002.95,0000.83
2023-11-20 00:17:00,SystemResetWarning,0820.7,5.00,000.00,026.4,025.5,000.0,034.7,027.8,12.9,0000.0,0001.02,0002.91,0000.81
2023-11-20 00:18:00,SystemResetWarning,0820.7,5.00,000.00,026.4,025.5,000.0,034.7,027.8,12.8,0000.0,0001.01,0002.73,0000.80
2023-11-20 00:19:00,SystemResetWarning,0820.8,5.00,000.00,026.4,025.5,000.0,034.7,027.8,12.8,0000.0,0000.99,0001.72,0000.79
2023-11-20 00:20:00,SystemResetWarning,0820.7,5.00,000.00,026.5,025.6,000.0,034.7,027.8,12.8,0000.0,0000.96,0001.67,0000.78
2023-11-20 00:21:00,SystemResetWarning,0820.8,5.00,000.00,026.5,025.6,000.0,034.7,027.8,12.7,0000.0,0000.96,0001.67,0000.79
2023-11-20 00:22:00,SystemResetWarning,0820.8,5.01,000.00,026.5,025.6,000.0,034.7,027.8,12.6,0000.0,0000.99,0001.75,0000.79
2023-11-20 00:23:00,SystemResetWarning,0820.8,5.00,000.00,026.5,025.6,000.0,034.7,027.8,12.6,0000.0,0001.00,0001.83,0000.79
2023-11-20 00:24:00,SystemResetWarning,0820.8,4.99,000.00,026.5,025.6,000.0,034.8,027.9,12.7,0000.0,0001.06,0002.00,0000.79
2023-11-20 00:25:00,SystemResetWarning,0820.9,5.00,000.00,026.5,025.6,000.0,034.8,027.9,12.8,0000.0,0001.05,0002.01,0000.78
2023-11-20 00:26:00,SystemResetWarning,0820.8,5.00,000.00,026.5,025.6,000.0,034.8,027.9,12.8,0000.0,0001.06,0002.01,0000.78
2023-11-20 00:27:00,SystemResetWarning,0821.1,5.00,000.00,026.5,025.6,000.0,034.8,027.9,12.8,0000.0,0001.05,0001.93,0000.78
2023-11-20 00:28:00,SystemResetWarning,0820.9,5.00,000.00,026.5,025.6,000.0,034.8,027.9,12.7,0000.0,0001.04,0001.90,0000.79
2023-11-20 00:29:00,SystemResetWarning,0821.1,4.99,000.00,026.5,025.6,000.0,034.8,027.9,12.7,0000.0,0001.05,0001.93,0000.79
2023-11-20 00:30:00,SystemResetWarning,0821.0,5.00,000.00,026.5,025.5,000.0,034.8,027.9,12.7,0000.0,0001.04,0001.92,0000.80
2023-11-20 00:31:00,SystemResetWarning,0821.3,5.00,000.00,026.5,024.0,000.0,034.8,027.8,12.8,0000.0,0001.05,0001.98,0000.80
2023-11-20 00:32:00,SystemResetWarning,0821.1,5.00,000.00,026.3,022.5,000.0,034.7,027.5,13.3,0000.0,0001.04,0002.00,0000.80
2023-11-20 00:33:00,SystemResetWarning,0821.0,5.01,000.00,026.2,022.3,000.0,034.6,027.0,14.0,0000.0,0001.02,0001.97,0000.79
2023-11-20 00:34:00,SystemResetWarning,0821.0,5.01,000.00,026.0,022.7,000.0,034.6,026.7,14.6,0000.0,0001.02,0001.61,0000.78
2023-11-20 00:35:00,SystemResetWarning,0821.1,4.99,000.00,025.9,023.1,000.0,034.5,026.8,14.7,0000.0,0000.99,0001.54,0000.77
2023-11-20 00:36:00,SystemResetWarning,0821.2,5.01,000.00,025.9,023.4,000.0,034.5,026.9,14.8,0000.0,0000.97,0001.46,0000.77
2023-11-20 00:37:00,SystemResetWarning,0821.2,5.00,000.00,025.9,023.7,000.0,034.4,027.0,14.9,0000.0,0000.97,0001.47,0000.77
2023-11-20 00:38:00,SystemResetWarning,0821.1,4.99,000.00,025.9,024.0,000.0,034.4,027.0,14.9,0000.0,0000.96,0001.46,0000.78
2023-11-20 00:39:00,SystemResetWarning,0821.1,5.00,000.00,025.9,024.2,000.0,034.4,027.1,15.0,0000.0,0000.96,0001.46,0000.78
2023-11-20 00:40:00,SystemResetWarning,0821.1,5.00,000.00,025.9,024.4,000.0,034.3,027.1,15.0,0000.0,0000.97,0001.46,0000.79
2023-11-20 00:41:00,SystemResetWarning,0821.2,5.00,000.00,025.9,024.5,000.0,034.3,027.2,15.1,0000.0,0001.01,0001.67,0000.81
2023-11-20 00:42:00,SystemResetWarning,0821.2,5.00,000.00,025.9,024.6,000.0,034.3,027.2,15.1,0000.0,0001.08,0001.78,0000.85
2023-11-20 00:43:00,SystemResetWarning,0821.2,5.00,000.00,025.9,024.7,000.0,034.3,027.2,15.1,0000.0,0001.15,0002.68,0000.88
2023-11-20 00:44:00,SystemResetWarning,0821.2,5.00,000.00,025.9,024.8,000.0,034.3,027.3,15.1,0000.0,0001.17,0003.11,0000.91
2023-11-20 00:45:00,SystemResetWarning,0821.2,5.00,000.00,026.0,024.9,000.0,034.3,027.3,15.1,0000.0,0001.19,0003.09,0000.95
2023-11-20 00:46:00,SystemResetWarning,0821.3,4.99,000.00,026.0,024.9,000.0,034.3,027.3,15.2,0000.0,0001.23,0003.16,0000.99
2023-11-20 00:47:00,SystemResetWarning,0821.2,5.00,000.00,026.0,024.9,000.0,034.3,027.3,15.1,0000.0,0001.28,0003.33,0001.02
2023-11-20 00:48:00,SystemResetWarning,0821.2,5.00,000.00,026.0,025.0,000.0,034.3,027.4,15.1,0000.0,0001.31,0003.35,0001.05
2023-11-20 00:49:00,SystemResetWarning,0821.2,5.00,000.00,026.0,025.0,000.0,034.3,027.4,15.0,0000.0,0001.35,0003.71,0001.07
2023-11-20 00:50:00,SystemResetWarning,0821.3,5.00,000.00,026.0,025.0,000.0,034.3,027.4,15.0,0000.0,0001.41,0004.09,0001.08
2023-11-20 00:51:00,SystemResetWarning,0821.3,5.00,000.00,026.0,025.0,000.0,034.3,027.4,14.9,0000.0,0001.47,0004.30,0001.10
2023-11-20 00:52:00,SystemResetWarning,0821.3,5.00,000.00,026.0,025.1,000.0,034.3,027.4,14.9,0000.0,0001.44,0004.99,0001.09
2023-11-20 00:53:00,SystemResetWarning,0821.3,5.00,000.00,026.0,025.1,000.0,034.3,027.4,14.9,0000.0,0001.41,0007.24,0001.09
2023-11-20 00:54:00,SystemResetWarning,0821.3,4.99,000.00,026.1,025.1,000.0,034.3,027.4,14.8,0000.0,0001.38,0006.37,0001.09
2023-11-20 00:55:00,SystemResetWarning,0821.3,5.00,000.00,026.1,025.1,000.0,034.3,027.4,14.8,0000.0,0001.37,0005.95,0001.09
2023-11-20 00:56:00,SystemResetWarning,0821.3,5.00,000.00,026.1,025.1,000.0,034.3,027.4,14.8,0000.0,0001.37,0005.96,0001.08
2023-11-20 00:57:00,SystemResetWarning,0821.3,5.00,000.00,026.1,025.1,000.0,034.3,027.5,14.8,0000.0,0001.36,0005.93,0001.07
2023-11-20 00:58:00,SystemResetWarning,0821.3,5.00,000.00,026.1,025.1,000.0,034.4,027.5,14.9,0000.0,0001.36,0005.81,0001.06
2023-11-20 00:59:00,SystemResetWarning,0821.3,5.00,000.00,026.1,025.1,000.0,034.4,027.5,14.9,0000.0,0001.35,0005.81,0001.06
